Home > Weather > Cambridge > Past weeks

Flag for Canada Weather for the Past 2 Weeks in Cambridge, Ontario, Canada

Now
-13 °F

Clear.


Feels Like: -13 °F
Forecast: -9 / 12 °F
Wind: No wind

Location: Waterloo Well

Current Time: Feb 14, 2016 at 6:18:36 AM

Latest Report: Feb 14, 2016 at 6:00 AM


Visibility: 9 mi

Pressure: 30.55 "Hg

Humidity: 69%

Dew point: -20 °F

Location of CambridgeLocation

Historic Weather in Cambridge — Graph

°F

Cambridge Temperature Yesterday

Maximum temperature yesterday: 7 °F (at 12:02 AM)
Minimum temperature yesterday: -9 °F (at 7:00 AM)
Average temperature yesterday: -3 °F

High & Low Weather Summary for the Past Weeks

 TemperatureHumidityPressure
High57 °F (Feb 3, 1:52 PM)100% (Jan 31, 2:00 AM)30.54 "Hg (Jan 31, 2:00 AM)
Low-15 °F (Feb 14, 4:00 AM)44% (Feb 3, 3:00 PM)29.46 "Hg (Jan 31, 11:00 PM)
Average27 °F81%29.92 "Hg
* Reported Jan 30 5:00 AM — Feb 14 5:00 AM, Cambridge, Weather by CustomWeather, © 2016

Note: Actual official high and low records may vary slightly from our data, if they occured in-between our weather recording intervals... More about our weather records

Advertising

Cambridge Weather History for the Previous 24 Hours

 ConditionsComfort  
Time TempWeatherWind HumidityBarometerVisibility
5:00 AM
Sun, Feb 14
-11 °FOvercast.No wind63%30.54 "Hg9 mi
4:00 AM-15 °FPassing clouds.3 mph69%30.53 "Hg9 mi
3:00 AM-13 °FClear.2 mph69%30.54 "Hg9 mi
2:00 AM-13 °FPassing clouds.3 mph76%30.53 "Hg9 mi
1:00 AM-13 °FClear.8 mph76%30.52 "Hg9 mi
12:00 AM-9 °FClear.9 mph77%30.50 "Hg9 mi
11:00 PM
Sat, Feb 13
-6 °FPassing clouds.2 mph77%30.47 "Hg9 mi
10:00 PM-6 °FPassing clouds.5 mph77%30.47 "Hg9 mi
9:00 PM-6 °FClear.6 mph77%30.47 "Hg9 mi
8:00 PM-4 °FClear.6 mph77%30.46 "Hg9 mi
7:00 PM-2 °FClear.7 mph71%30.45 "Hg9 mi
6:00 PM0 °FClear.8 mph65%30.42 "Hg9 mi
5:00 PM0 °FSunny.9 mph65%30.40 "Hg9 mi
4:00 PM1 °FPassing clouds.14 mph60%30.39 "Hg9 mi
3:00 PM1 °FSunny.16 mph55%30.37 "Hg9 mi
2:00 PM0 °FSunny.21 mph54%30.37 "Hg9 mi
1:00 PM0 °FSunny.14 mph50%30.37 "Hg9 mi
12:00 PM-2 °FSunny.15 mph54%30.37 "Hg9 mi
11:00 AM-4 °FSunny.18 mph54%30.36 "Hg9 mi
10:00 AM-6 °FSunny.20 mph54%30.35 "Hg9 mi
9:00 AM-8 °FSunny.14 mph58%30.34 "Hg9 mi
8:00 AM-9 °FSunny.10 mph64%30.33 "Hg9 mi
7:00 AM-9 °FClear.13 mph58%30.29 "Hg9 mi
6:00 AM-8 °FClear.15 mph64%30.26 "Hg9 mi
Weather by CustomWeather, © 2016

See weather overviewHow to use our weather pages